User: anonymous   Login
Location: ActonStarParty
(42.4766°N, 71.4538°W)
Time: 21:51:17
(UTC-04:00)
Language:

ATLAS 5 CENTAUR R/B - Orbit

View from above orbital plane
View from above orbital plane
View from above satellite
View from above satellite

Ground track
Ground track

The orbit data is extracted from the following two-line orbital elements,

1 32379U 07060B   14303.36329427 0.00005000  00000-0  24169-2 0    06
2 32379  60.9464   2.1182 5181396 197.1579 135.3356  5.23313482    08
Epoch (UTC): 30 October 2014 08:43:08
Eccentricity: 0.5181396
inclination: 60.9464°
perigee height: 374 km
apogee height: 14897 km
right ascension of ascending node: 2.1182°
argument of perigee: 197.1579°
revolutions per day: 5.23313482
mean anomaly at epoch: 135.3356°
orbit number at epoch: 0

The dashed part of the orbit path shows where the satellite is in the earth's shadow,  

DLR